Content
SEND FEEDBACK

Daily
Averages
Monthly
Summary
United States of America

CHICAGO, ILLINOIS


Home > North America > United States > Illinois
Elevation: 205 meters     Latitude: 41 59N     Longitude: 087 54W

WEATHER
 
SELECT A DAY
Number of Records: 194,962;   Date Range: 7/8/95 - 8/12/14
 
SHARE

PRINT THIS DATA

[ ← Previous Day ]
WEATHER ALMANAC - 19 APRIL, 2014
[ Next Day → ]
[ °F ]   °C
Weather ElementAverageHighLow
Temperature9.6 °C16.7 °C (3:52 pm)2.8 °C (5:52 am)
Dewpoint1.7 °C4.4 °C (2:52 pm)-2.2 °C (1:52 am)
Humidity59.2 %73 % (5:52 am)43 % (3:52 pm)
Barometer1027.1 hPa1030.1 hPa (7:52 am)1024.4 hPa (5:52 pm)
Wind Speed9.5 km/h18.5 km/h (8:52 am)
Weather ElementAverage
Visibility16.1 km
Wind DirectionENE (70 °)

Weather ElementTotal
Precipitation---
Heating Degree Days8.6 (Base 18.3)
Averaged from 21 records on 19 April, 2014
WEATHER CONDITIONS BREAKOUT
WIND DIRECTION BREAKOUT
WEATHER BY HOUR - 19 APRIL, 2014
[ °F ]   °C
Local TimeTemperatureDewpointHumidityBarometerVisibilityWind DirectionWind SpeedGust SpeedPrecipitationEventsConditions
1:52 AM3.3 °C-2.2 °C68 %1029.5 hPa16.1 kmNE (50°)11.1 km/hClear
2:52 AM3.3 °C-1.7 °C70 %1029.5 hPa16.1 kmENE (60°)7.4 km/hClear
4:52 AM3.3 °C-1.7 °C70 %1029.5 hPa16.1 kmNE (50°)11.1 km/hClear
5:52 AM2.8 °C-1.7 °C73 %1029.8 hPa16.1 kmENE (70°)5.6 km/hClear
7:52 AM4.4 °C-0.6 °C70 %1030.1 hPa16.1 kmEast (80°)16.7 km/hClear
8:52 AM6.1 °C0 °C65 %1030.1 hPa16.1 kmEast (100°)18.5 km/hClear
9:52 AM7.2 °C1.1 °C65 %1029.8 hPa16.1 kmESE (110°)11.1 km/hClear
10:52 AM8.9 °C2.2 °C63 %1029.1 hPa16.1 kmVariable9.3 km/hClear
11:52 AM10.6 °C2.8 °C59 %1028.8 hPa16.1 kmVariable7.4 km/hClear
12:52 PM12.2 °C3.3 °C55 %1028.4 hPa16.1 kmVariable9.3 km/hClear
1:52 PM13.9 °C3.3 °C49 %1027.4 hPa16.1 kmEast (100°)11.1 km/hClear
2:52 PM15.6 °C4.4 °C47 %1026.8 hPa16.1 kmSE (130°)14.8 km/hClear
3:52 PM16.7 °C3.9 °C43 %1025.4 hPa16.1 kmESE (120°)14.8 km/hClear
4:52 PM16.1 °C3.9 °C44 %1025.1 hPa16.1 kmEast (100°)14.8 km/hClear
5:52 PM15 °C2.8 °C44 %1024.4 hPa16.1 kmEast (80°)11.1 km/hClear
6:52 PM12.8 °C2.2 °C49 %1024.4 hPa16.1 kmEast (90°)7.4 km/hClear
7:52 PM11.1 °C2.2 °C54 %1024.4 hPa16.1 kmCalmClear
8:52 PM10 °C2.2 °C59 %1024.7 hPa16.1 kmEast (80°)5.6 km/hClear
9:52 PM9.4 °C2.8 °C64 %1024.7 hPa16.1 kmSE (130°)5.6 km/hClear
10:52 PM8.9 °C2.8 °C66 %1024.7 hPa16.1 kmESE (120°)5.6 km/hClear
11:52 PM8.9 °C2.8 °C66 %1024.4 hPa16.1 kmCalmClear
Hourly data recorded from KPWK, located 0 kilometers away from Chicago, Illinois







STORIES FROM OUR PARTNERS